owner,sensor,date,latitude,longitude,vertical_datum,sea_water_practical_salinity,qcFlag 
SCCF RECON,ioos:station:SCCF:13:1,2014-02-01T00:00:00Z,26.5255,-82.0032,2.345,28.23,1111122 
SCCF RECON,ioos:station:SCCF:13:1,2014-02-01T01:00:00Z,26.5255,-82.0032,2.34,25.19,1111122 
SCCF RECON,ioos:station:SCCF:13:1,2014-02-01T02:00:00Z,26.5255,-82.0032,2.436,24.59,1111122 
SCCF RECON,ioos:station:SCCF:13:1,2014-02-01T03:00:00Z,26.5255,-82.0032,2.57,25.58,1111122 
SCCF RECON,ioos:station:SCCF:13:1,2014-02-01T04:00:00Z,26.5255,-82.0032,2.69,28.28,1111122 
SCCF RECON,ioos:station:SCCF:13:1,2014-02-01T05:00:00Z,26.5255,-82.0032,2.78,29.61,1111122 
SCCF RECON,ioos:station:SCCF:13:1,2014-02-01T06:00:00Z,26.5255,-82.0032,2.85,31.27,1111122 
SCCF RECON,ioos:station:SCCF:13:1,2014-02-01T07:00:00Z,26.5255,-82.0032,2.872,31.53,1111122 
SCCF RECON,ioos:station:SCCF:13:1,2014-02-01T08:00:00Z,26.5255,-82.0032,2.83,31.4,1111122 
SCCF RECON,ioos:station:SCCF:13:1,2014-02-01T09:00:00Z,26.5255,-82.0032,2.7,31.5,1111122 
SCCF RECON,ioos:station:SCCF:13:1,2014-02-01T10:00:00Z,26.5255,-82.0032,2.566,31.26,1111122 
SCCF RECON,ioos:station:SCCF:13:1,2014-02-01T11:00:00Z,26.5255,-82.0032,2.48,30.31,1111122 
SCCF RECON,ioos:station:SCCF:13:1,2014-02-01T12:00:00Z,26.5255,-82.0032,2.39,28.2,1111122 
SCCF RECON,ioos:station:SCCF:13:1,2014-02-01T13:00:00Z,26.5255,-82.0032,2.31,27.53,1111122 
SCCF RECON,ioos:station:SCCF:13:1,2014-02-01T14:00:00Z,26.5255,-82.0032,2.25,25.82,1111122 
SCCF RECON,ioos:station:SCCF:13:1,2014-02-01T15:00:00Z,26.5255,-82.0032,2.29,25.33,1111122 
SCCF RECON,ioos:station:SCCF:13:1,2014-02-01T16:00:00Z,26.5255,-82.0032,2.46,24.45,1111122 
SCCF RECON,ioos:station:SCCF:13:1,2014-02-01T17:00:00Z,26.5255,-82.0032,2.55,24.47,1111122 
SCCF RECON,ioos:station:SCCF:13:1,2014-02-01T18:00:00Z,26.5255,-82.0032,2.6,26.34,1111122 
SCCF RECON,ioos:station:SCCF:13:1,2014-02-01T19:00:00Z,26.5255,-82.0032,2.639,27.88,1111122 
SCCF RECON,ioos:station:SCCF:13:1,2014-02-01T20:00:00Z,26.5255,-82.0032,2.66,30.17,1111122 
SCCF RECON,ioos:station:SCCF:13:1,2014-02-01T21:00:00Z,26.5255,-82.0032,2.63,30.45,1111122 
SCCF RECON,ioos:station:SCCF:13:1,2014-02-01T22:00:00Z,26.5255,-82.0032,2.546,30.24,1111122 
SCCF RECON,ioos:station:SCCF:13:1,2014-02-01T23:00:00Z,26.5255,-82.0032,2.46,29.73,1111122 
SCCF RECON,ioos:station:SCCF:13:1,2014-02-02T00:00:00Z,26.5255,-82.0032,2.392,27.29,1111122 
SCCF RECON,ioos:station:SCCF:13:1,2014-02-02T01:00:00Z,26.5255,-82.0032,2.34,26.07,1111122 
SCCF RECON,ioos:station:SCCF:13:1,2014-02-02T02:00:00Z,26.5255,-82.0032,2.31,24.29,1111122 
SCCF RECON,ioos:station:SCCF:13:1,2014-02-02T03:00:00Z,26.5255,-82.0032,2.39,23.55,1111122 
SCCF RECON,ioos:station:SCCF:13:1,2014-02-02T04:00:00Z,26.5255,-82.0032,2.56,23.81,1111122 
SCCF RECON,ioos:station:SCCF:13:1,2014-02-02T05:00:00Z,26.5255,-82.0032,2.662,27.09,1111122 
SCCF RECON,ioos:station:SCCF:13:1,2014-02-02T06:00:00Z,26.5255,-82.0032,2.73,28.64,1111122 
SCCF RECON,ioos:station:SCCF:13:1,2014-02-02T07:00:00Z,26.5255,-82.0032,2.78,30.81,1111122 
SCCF RECON,ioos:station:SCCF:13:1,2014-02-02T08:00:00Z,26.5255,-82.0032,2.8,31.03,1111122 
SCCF RECON,ioos:station:SCCF:13:1,2014-02-02T09:00:00Z,26.5255,-82.0032,2.748,31.24,1111122 
SCCF RECON,ioos:station:SCCF:13:1,2014-02-02T10:00:00Z,26.5255,-82.0032,2.62,31.25,1111122 
SCCF RECON,ioos:station:SCCF:13:1,2014-02-02T11:00:00Z,26.5255,-82.0032,2.51,30.36,1111122 
SCCF RECON,ioos:station:SCCF:13:1,2014-02-02T12:00:00Z,26.5255,-82.0032,2.44,28.42,1111122 
SCCF RECON,ioos:station:SCCF:13:1,2014-02-02T13:00:00Z,26.5255,-82.0032,2.36,26.19,1111122 
SCCF RECON,ioos:station:SCCF:13:1,2014-02-02T14:00:00Z,26.5255,-82.0032,2.284,25.19,1111122 
SCCF RECON,ioos:station:SCCF:13:1,2014-02-02T15:00:00Z,26.5255,-82.0032,2.256,23.94,1111122 
SCCF RECON,ioos:station:SCCF:13:1,2014-02-02T16:00:00Z,26.5255,-82.0032,2.373,23.13,1111122 
SCCF RECON,ioos:station:SCCF:13:1,2014-02-02T17:00:00Z,26.5255,-82.0032,2.52,22.65,1111122 
SCCF RECON,ioos:station:SCCF:13:1,2014-02-02T18:00:00Z,26.5255,-82.0032,2.587,25.53,1111122 
SCCF RECON,ioos:station:SCCF:13:1,2014-02-02T19:00:00Z,26.5255,-82.0032,2.63,27.78,1111122 
SCCF RECON,ioos:station:SCCF:13:1,2014-02-02T20:00:00Z,26.5255,-82.0032,2.671,29.96,1111122 
SCCF RECON,ioos:station:SCCF:13:1,2014-02-02T21:00:00Z,26.5255,-82.0032,2.675,30.49,1111122 
SCCF RECON,ioos:station:SCCF:13:1,2014-02-02T22:00:00Z,26.5255,-82.0032,2.62,30.74,1111122 
SCCF RECON,ioos:station:SCCF:13:1,2014-02-02T23:00:00Z,26.5255,-82.0032,2.531,30.86,1111122 
SCCF RECON,ioos:station:SCCF:13:1,2014-02-03T00:00:00Z,26.5255,-82.0032,2.45,29.64,1111122 
SCCF RECON,ioos:station:SCCF:13:1,2014-02-03T01:00:00Z,26.5255,-82.0032,2.38,27.54,1111122 
SCCF RECON,ioos:station:SCCF:13:1,2014-02-03T02:00:00Z,26.5255,-82.0032,2.32,26.26,1111122 
SCCF RECON,ioos:station:SCCF:13:1,2014-02-03T03:00:00Z,26.5255,-82.0032,2.3,24.33,1111122 
SCCF RECON,ioos:station:SCCF:13:1,2014-02-03T04:00:00Z,26.5255,-82.0032,2.4,23.2,1111122 
SCCF RECON,ioos:station:SCCF:13:1,2014-02-03T05:00:00Z,26.5255,-82.0032,2.553,23.74,1111122 
SCCF RECON,ioos:station:SCCF:13:1,2014-02-03T06:00:00Z,26.5255,-82.0032,2.63,27.49,1111122 
SCCF RECON,ioos:station:SCCF:13:1,2014-02-03T07:00:00Z,26.5255,-82.0032,2.69,28.91,1111122 
SCCF RECON,ioos:station:SCCF:13:1,2014-02-03T08:00:00Z,26.5255,-82.0032,2.73,30.67,1111122 
SCCF RECON,ioos:station:SCCF:13:1,2014-02-03T09:00:00Z,26.5255,-82.0032,2.73,31.28,1111122 
SCCF RECON,ioos:station:SCCF:13:1,2014-02-03T10:00:00Z,26.5255,-82.0032,2.67,31.44,1111122 
SCCF RECON,ioos:station:SCCF:13:1,2014-02-03T11:00:00Z,26.5255,-82.0032,2.578,31.36,1111122 
SCCF RECON,ioos:station:SCCF:13:1,2014-02-03T12:00:00Z,26.5255,-82.0032,2.48,30.22,1111122 
SCCF RECON,ioos:station:SCCF:13:1,2014-02-03T13:00:00Z,26.5255,-82.0032,2.415,26.78,1111122 
SCCF RECON,ioos:station:SCCF:13:1,2014-02-03T14:00:00Z,26.5255,-82.0032,2.35,25.46,1111122 
SCCF RECON,ioos:station:SCCF:13:1,2014-02-03T15:00:00Z,26.5255,-82.0032,2.29,24.32,1111122 
SCCF RECON,ioos:station:SCCF:13:1,2014-02-03T16:00:00Z,26.5255,-82.0032,2.302,23.16,1111122 
SCCF RECON,ioos:station:SCCF:13:1,2014-02-03T17:00:00Z,26.5255,-82.0032,2.45,22.28,1111122 
SCCF RECON,ioos:station:SCCF:13:1,2014-02-03T18:00:00Z,26.5255,-82.0032,2.55,24.51,1111122 
SCCF RECON,ioos:station:SCCF:13:1,2014-02-03T19:00:00Z,26.5255,-82.0032,2.59,26.49,1111122 
SCCF RECON,ioos:station:SCCF:13:1,2014-02-03T20:00:00Z,26.5255,-82.0032,2.63,29.44,1111122 
SCCF RECON,ioos:station:SCCF:13:1,2014-02-03T21:00:00Z,26.5255,-82.0032,2.662,30.71,1111122 
SCCF RECON,ioos:station:SCCF:13:1,2014-02-03T22:00:00Z,26.5255,-82.0032,2.65,30.99,1111122 
SCCF RECON,ioos:station:SCCF:13:1,2014-02-03T23:00:00Z,26.5255,-82.0032,2.57,31.05,1111122 
SCCF RECON,ioos:station:SCCF:13:1,2014-02-04T00:00:00Z,26.5255,-82.0032,2.48,30.93,1111122 
SCCF RECON,ioos:station:SCCF:13:1,2014-02-04T01:00:00Z,26.5255,-82.0032,2.41,28.68,1111122 
SCCF RECON,ioos:station:SCCF:13:1,2014-02-04T02:00:00Z,26.5255,-82.0032,2.34,26.52,1111122 
SCCF RECON,ioos:station:SCCF:13:1,2014-02-04T03:00:00Z,26.5255,-82.0032,2.28,24.69,1111122 
SCCF RECON,ioos:station:SCCF:13:1,2014-02-04T04:00:00Z,26.5255,-82.0032,2.27,23.2,1111122 
SCCF RECON,ioos:station:SCCF:13:1,2014-02-04T05:00:00Z,26.5255,-82.0032,2.355,22.28,1111122 
SCCF RECON,ioos:station:SCCF:13:1,2014-02-04T06:00:00Z,26.5255,-82.0032,2.475,22.1,1111122 
SCCF RECON,ioos:station:SCCF:13:1,2014-02-04T07:00:00Z,26.5255,-82.0032,2.54,25.83,1111122 
SCCF RECON,ioos:station:SCCF:13:1,2014-02-04T08:00:00Z,26.5255,-82.0032,2.58,27.33,1111122 
SCCF RECON,ioos:station:SCCF:13:1,2014-02-04T09:00:00Z,26.5255,-82.0032,2.62,29.36,1111122 
SCCF RECON,ioos:station:SCCF:13:1,2014-02-04T10:00:00Z,26.5255,-82.0032,2.63,30.32,1111122 
SCCF RECON,ioos:station:SCCF:13:1,2014-02-04T11:00:00Z,26.5255,-82.0032,2.6,30.89,1111122 
SCCF RECON,ioos:station:SCCF:13:1,2014-02-04T12:00:00Z,26.5255,-82.0032,2.52,31.15,1111122 
SCCF RECON,ioos:station:SCCF:13:1,2014-02-04T13:00:00Z,26.5255,-82.0032,2.45,29.78,1111122 
SCCF RECON,ioos:station:SCCF:13:1,2014-02-04T14:00:00Z,26.5255,-82.0032,2.381,25.94,1111122 
SCCF RECON,ioos:station:SCCF:13:1,2014-02-04T15:00:00Z,26.5255,-82.0032,2.34,23.41,1111122 
SCCF RECON,ioos:station:SCCF:13:1,2014-02-04T16:00:00Z,26.5255,-82.0032,2.33,22.71,1111122 
SCCF RECON,ioos:station:SCCF:13:1,2014-02-04T17:00:00Z,26.5255,-82.0032,2.418,21.95,1111122 
SCCF RECON,ioos:station:SCCF:13:1,2014-02-04T18:00:00Z,26.5255,-82.0032,2.531,23.78,1111122 
SCCF RECON,ioos:station:SCCF:13:1,2014-02-04T19:00:00Z,26.5255,-82.0032,2.61,27.39,1111122 
SCCF RECON,ioos:station:SCCF:13:1,2014-02-04T20:00:00Z,26.5255,-82.0032,2.662,30.08,1111122 
SCCF RECON,ioos:station:SCCF:13:1,2014-02-04T21:00:00Z,26.5255,-82.0032,2.718,31.4,1111122 
SCCF RECON,ioos:station:SCCF:13:1,2014-02-04T22:00:00Z,26.5255,-82.0032,2.735,31.78,1111122 
SCCF RECON,ioos:station:SCCF:13:1,2014-02-04T23:00:00Z,26.5255,-82.0032,2.71,31.93,1111122 
SCCF RECON,ioos:station:SCCF:13:1,2014-02-05T00:00:00Z,26.5255,-82.0032,2.64,31.76,1111122 
SCCF RECON,ioos:station:SCCF:13:1,2014-02-05T01:00:00Z,26.5255,-82.0032,2.54,31.74,1111122 
SCCF RECON,ioos:station:SCCF:13:1,2014-02-05T02:00:00Z,26.5255,-82.0032,2.46,30.56,1111122 
SCCF RECON,ioos:station:SCCF:13:1,2014-02-05T03:00:00Z,26.5255,-82.0032,2.39,28.24,1111122 
SCCF RECON,ioos:station:SCCF:13:1,2014-02-05T04:00:00Z,26.5255,-82.0032,2.33,27.0,1111122 
SCCF RECON,ioos:station:SCCF:13:1,2014-02-05T05:00:00Z,26.5255,-82.0032,2.3,25.03,1111122 
SCCF RECON,ioos:station:SCCF:13:1,2014-02-05T06:00:00Z,26.5255,-82.0032,2.349,23.84,1111122 
SCCF RECON,ioos:station:SCCF:13:1,2014-02-05T07:00:00Z,26.5255,-82.0032,2.46,22.96,1111122 
SCCF RECON,ioos:station:SCCF:13:1,2014-02-05T08:00:00Z,26.5255,-82.0032,2.51,25.43,1111122 
SCCF RECON,ioos:station:SCCF:13:1,2014-02-05T09:00:00Z,26.5255,-82.0032,2.54,27.49,1111122 
SCCF RECON,ioos:station:SCCF:13:1,2014-02-05T10:00:00Z,26.5255,-82.0032,2.585,28.65,1111122 
SCCF RECON,ioos:station:SCCF:13:1,2014-02-05T11:00:00Z,26.5255,-82.0032,2.61,29.53,1111122 
SCCF RECON,ioos:station:SCCF:13:1,2014-02-05T12:00:00Z,26.5255,-82.0032,2.59,30.38,1111122 
SCCF RECON,ioos:station:SCCF:13:1,2014-02-05T13:00:00Z,26.5255,-82.0032,2.55,31.38,1111122 
SCCF RECON,ioos:station:SCCF:13:1,2014-02-05T14:00:00Z,26.5255,-82.0032,2.5,31.02,1111122 
SCCF RECON,ioos:station:SCCF:13:1,2014-02-05T15:00:00Z,26.5255,-82.0032,2.44,27.68,1111122 
SCCF RECON,ioos:station:SCCF:13:1,2014-02-05T16:00:00Z,26.5255,-82.0032,2.385,25.17,1111122 
SCCF RECON,ioos:station:SCCF:13:1,2014-02-05T17:00:00Z,26.5255,-82.0032,2.41,24.84,1111122 
SCCF RECON,ioos:station:SCCF:13:1,2014-02-05T18:00:00Z,26.5255,-82.0032,2.514,25.3,1111122 
SCCF RECON,ioos:station:SCCF:13:1,2014-02-05T19:00:00Z,26.5255,-82.0032,2.59,28.29,1111122 
SCCF RECON,ioos:station:SCCF:13:1,2014-02-05T20:00:00Z,26.5255,-82.0032,2.641,29.64,1111122 
SCCF RECON,ioos:station:SCCF:13:1,2014-02-05T21:00:00Z,26.5255,-82.0032,2.69,31.2,1111122 
SCCF RECON,ioos:station:SCCF:13:1,2014-02-05T22:00:00Z,26.5255,-82.0032,2.75,32.07,1111122 
SCCF RECON,ioos:station:SCCF:13:1,2014-02-05T23:00:00Z,26.5255,-82.0032,2.77,32.32,1111122 
SCCF RECON,ioos:station:SCCF:13:1,2014-02-06T00:00:00Z,26.5255,-82.0032,2.74,32.33,1111122 
SCCF RECON,ioos:station:SCCF:13:1,2014-02-06T01:00:00Z,26.5255,-82.0032,2.65,32.36,1111122 
SCCF RECON,ioos:station:SCCF:13:1,2014-02-06T02:00:00Z,26.5255,-82.0032,2.542,31.43,1111122 
SCCF RECON,ioos:station:SCCF:13:1,2014-02-06T03:00:00Z,26.5255,-82.0032,2.48,30.22,1111122 
SCCF RECON,ioos:station:SCCF:13:1,2014-02-06T04:00:00Z,26.5255,-82.0032,2.41,27.76,1111122 
SCCF RECON,ioos:station:SCCF:13:1,2014-02-06T05:00:00Z,26.5255,-82.0032,2.35,26.62,1111122 
SCCF RECON,ioos:station:SCCF:13:1,2014-02-06T06:00:00Z,26.5255,-82.0032,2.31,25.43,1111122 
SCCF RECON,ioos:station:SCCF:13:1,2014-02-06T07:00:00Z,26.5255,-82.0032,2.33,24.39,1111122 
SCCF RECON,ioos:station:SCCF:13:1,2014-02-06T08:00:00Z,26.5255,-82.0032,2.41,23.64,1111122 
SCCF RECON,ioos:station:SCCF:13:1,2014-02-06T09:00:00Z,26.5255,-82.0032,2.47,23.44,1111122 
SCCF RECON,ioos:station:SCCF:13:1,2014-02-06T10:00:00Z,26.5255,-82.0032,2.5,25.55,1111122 
SCCF RECON,ioos:station:SCCF:13:1,2014-02-06T11:00:00Z,26.5255,-82.0032,2.52,26.96,1111122 
SCCF RECON,ioos:station:SCCF:13:1,2014-02-06T12:00:00Z,26.5255,-82.0032,2.52,28.05,1111122 
SCCF RECON,ioos:station:SCCF:13:1,2014-02-06T13:00:00Z,26.5255,-82.0032,2.48,29.07,1111122 
SCCF RECON,ioos:station:SCCF:13:1,2014-02-06T14:00:00Z,26.5255,-82.0032,2.46,29.07,1111122 
SCCF RECON,ioos:station:SCCF:13:1,2014-02-06T15:00:00Z,26.5255,-82.0032,2.44,28.67,1111122 
SCCF RECON,ioos:station:SCCF:13:1,2014-02-06T16:00:00Z,26.5255,-82.0032,2.42,25.27,1111122 
SCCF RECON,ioos:station:SCCF:13:1,2014-02-06T17:00:00Z,26.5255,-82.0032,2.4,22.99,1111122 
SCCF RECON,ioos:station:SCCF:13:1,2014-02-06T18:00:00Z,26.5255,-82.0032,2.39,22.36,1111122 
SCCF RECON,ioos:station:SCCF:13:1,2014-02-06T19:00:00Z,26.5255,-82.0032,2.45,22.3,1111122 
SCCF RECON,ioos:station:SCCF:13:1,2014-02-06T20:00:00Z,26.5255,-82.0032,2.53,25.39,1111122 
SCCF RECON,ioos:station:SCCF:13:1,2014-02-06T21:00:00Z,26.5255,-82.0032,2.59,27.86,1111122 
SCCF RECON,ioos:station:SCCF:13:1,2014-02-06T22:00:00Z,26.5255,-82.0032,2.639,30.53,1111122 
SCCF RECON,ioos:station:SCCF:13:1,2014-02-06T23:00:00Z,26.5255,-82.0032,2.681,31.24,1111122 
SCCF RECON,ioos:station:SCCF:13:1,2014-02-07T00:00:00Z,26.5255,-82.0032,2.71,31.86,1111122 
SCCF RECON,ioos:station:SCCF:13:1,2014-02-07T01:00:00Z,26.5255,-82.0032,2.68,32.11,1111122 
SCCF RECON,ioos:station:SCCF:13:1,2014-02-07T02:00:00Z,26.5255,-82.0032,2.6,32.33,1111122 
SCCF RECON,ioos:station:SCCF:13:1,2014-02-07T03:00:00Z,26.5255,-82.0032,2.52,30.94,1111122 
SCCF RECON,ioos:station:SCCF:13:1,2014-02-07T04:00:00Z,26.5255,-82.0032,2.46,29.57,1111122 
SCCF RECON,ioos:station:SCCF:13:1,2014-02-07T05:00:00Z,26.5255,-82.0032,2.38,26.24,1111122 
SCCF RECON,ioos:station:SCCF:13:1,2014-02-07T06:00:00Z,26.5255,-82.0032,2.309,24.25,1111122 
SCCF RECON,ioos:station:SCCF:13:1,2014-02-07T07:00:00Z,26.5255,-82.0032,2.27,22.8,1111122 
SCCF RECON,ioos:station:SCCF:13:1,2014-02-07T08:00:00Z,26.5255,-82.0032,2.27,22.63,1111122 
SCCF RECON,ioos:station:SCCF:13:1,2014-02-07T09:00:00Z,26.5255,-82.0032,2.296,22.32,1111122 
SCCF RECON,ioos:station:SCCF:13:1,2014-02-07T10:00:00Z,26.5255,-82.0032,2.32,21.46,1111122 
SCCF RECON,ioos:station:SCCF:13:1,2014-02-07T11:00:00Z,26.5255,-82.0032,2.36,20.92,1111122 
SCCF RECON,ioos:station:SCCF:13:1,2014-02-07T12:00:00Z,26.5255,-82.0032,2.41,21.11,1111122 
SCCF RECON,ioos:station:SCCF:13:1,2014-02-07T13:00:00Z,26.5255,-82.0032,2.44,24.92,1111122 
SCCF RECON,ioos:station:SCCF:13:1,2014-02-07T14:00:00Z,26.5255,-82.0032,2.412,25.91,1111122 
SCCF RECON,ioos:station:SCCF:13:1,2014-02-07T15:00:00Z,26.5255,-82.0032,2.388,26.5,1111122 
SCCF RECON,ioos:station:SCCF:13:1,2014-02-07T16:00:00Z,26.5255,-82.0032,2.428,25.8,1111122 
SCCF RECON,ioos:station:SCCF:13:1,2014-02-07T17:00:00Z,26.5255,-82.0032,2.47,27.71,1111122 
SCCF RECON,ioos:station:SCCF:13:1,2014-02-07T18:00:00Z,26.5255,-82.0032,2.472,28.79,1111122 
SCCF RECON,ioos:station:SCCF:13:1,2014-02-07T19:00:00Z,26.5255,-82.0032,2.495,29.79,1111122 
SCCF RECON,ioos:station:SCCF:13:1,2014-02-07T20:00:00Z,26.5255,-82.0032,2.54,30.6,1111122 
SCCF RECON,ioos:station:SCCF:13:1,2014-02-07T21:00:00Z,26.5255,-82.0032,2.6,30.29,1111122 
SCCF RECON,ioos:station:SCCF:13:1,2014-02-07T22:00:00Z,26.5255,-82.0032,2.671,29.83,1111122 
SCCF RECON,ioos:station:SCCF:13:1,2014-02-07T23:00:00Z,26.5255,-82.0032,2.73,30.66,1111122 
SCCF RECON,ioos:station:SCCF:13:1,2014-02-08T00:00:00Z,26.5255,-82.0032,2.75,31.3,1111122 
SCCF RECON,ioos:station:SCCF:13:1,2014-02-08T01:00:00Z,26.5255,-82.0032,2.74,31.36,1111122 
SCCF RECON,ioos:station:SCCF:13:1,2014-02-08T02:00:00Z,26.5255,-82.0032,2.71,31.61,1111122 
SCCF RECON,ioos:station:SCCF:13:1,2014-02-08T03:00:00Z,26.5255,-82.0032,2.63,30.85,1111122 
SCCF RECON,ioos:station:SCCF:13:1,2014-02-08T04:00:00Z,26.5255,-82.0032,2.561,29.64,1111122 
SCCF RECON,ioos:station:SCCF:13:1,2014-02-08T05:00:00Z,26.5255,-82.0032,2.48,26.88,1111122 
SCCF RECON,ioos:station:SCCF:13:1,2014-02-08T06:00:00Z,26.5255,-82.0032,2.4,25.67,1111122 
SCCF RECON,ioos:station:SCCF:13:1,2014-02-08T07:00:00Z,26.5255,-82.0032,2.314,24.65,1111122 
SCCF RECON,ioos:station:SCCF:13:1,2014-02-08T08:00:00Z,26.5255,-82.0032,2.244,23.72,1111122 
SCCF RECON,ioos:station:SCCF:13:1,2014-02-08T09:00:00Z,26.5255,-82.0032,2.23,22.75,1111122 
SCCF RECON,ioos:station:SCCF:13:1,2014-02-08T10:00:00Z,26.5255,-82.0032,2.3,21.73,1111122 
SCCF RECON,ioos:station:SCCF:13:1,2014-02-08T11:00:00Z,26.5255,-82.0032,2.37,21.08,1111122 
SCCF RECON,ioos:station:SCCF:13:1,2014-02-08T12:00:00Z,26.5255,-82.0032,2.422,21.79,1111122 
SCCF RECON,ioos:station:SCCF:13:1,2014-02-08T13:00:00Z,26.5255,-82.0032,2.468,24.3,1111122 
SCCF RECON,ioos:station:SCCF:13:1,2014-02-08T14:00:00Z,26.5255,-82.0032,2.51,26.25,1111122 
SCCF RECON,ioos:station:SCCF:13:1,2014-02-08T15:00:00Z,26.5255,-82.0032,2.53,27.79,1111122 
SCCF RECON,ioos:station:SCCF:13:1,2014-02-08T16:00:00Z,26.5255,-82.0032,2.535,29.25,1111122 
SCCF RECON,ioos:station:SCCF:13:1,2014-02-08T17:00:00Z,26.5255,-82.0032,2.53,30.0,1111122 
SCCF RECON,ioos:station:SCCF:13:1,2014-02-08T18:00:00Z,26.5255,-82.0032,2.536,29.97,1111122 
SCCF RECON,ioos:station:SCCF:13:1,2014-02-08T19:00:00Z,26.5255,-82.0032,2.51,30.1,1111122 
SCCF RECON,ioos:station:SCCF:13:1,2014-02-08T20:00:00Z,26.5255,-82.0032,2.51,30.14,1111122 
SCCF RECON,ioos:station:SCCF:13:1,2014-02-08T21:00:00Z,26.5255,-82.0032,2.56,30.31,1111122 
SCCF RECON,ioos:station:SCCF:13:1,2014-02-08T22:00:00Z,26.5255,-82.0032,2.607,30.35,1111122 
SCCF RECON,ioos:station:SCCF:13:1,2014-02-08T23:00:00Z,26.5255,-82.0032,2.649,29.78,1111122 
SCCF RECON,ioos:station:SCCF:13:1,2014-02-09T00:00:00Z,26.5255,-82.0032,2.67,29.33,1111122 
SCCF RECON,ioos:station:SCCF:13:1,2014-02-09T01:00:00Z,26.5255,-82.0032,2.68,30.29,1111122 
SCCF RECON,ioos:station:SCCF:13:1,2014-02-09T02:00:00Z,26.5255,-82.0032,2.649,30.65,1111122 
SCCF RECON,ioos:station:SCCF:13:1,2014-02-09T03:00:00Z,26.5255,-82.0032,2.56,29.51,1111122 
SCCF RECON,ioos:station:SCCF:13:1,2014-02-09T04:00:00Z,26.5255,-82.0032,2.51,27.82,1111122 
SCCF RECON,ioos:station:SCCF:13:1,2014-02-09T05:00:00Z,26.5255,-82.0032,2.46,25.51,1111122 
SCCF RECON,ioos:station:SCCF:13:1,2014-02-09T06:00:00Z,26.5255,-82.0032,2.386,23.9,1111122 
SCCF RECON,ioos:station:SCCF:13:1,2014-02-09T07:00:00Z,26.5255,-82.0032,2.3,22.81,1111122 
SCCF RECON,ioos:station:SCCF:13:1,2014-02-09T08:00:00Z,26.5255,-82.0032,2.22,21.79,1111122 
SCCF RECON,ioos:station:SCCF:13:1,2014-02-09T09:00:00Z,26.5255,-82.0032,2.16,21.11,1111122 
SCCF RECON,ioos:station:SCCF:13:1,2014-02-09T10:00:00Z,26.5255,-82.0032,2.139,20.43,1111122 
SCCF RECON,ioos:station:SCCF:13:1,2014-02-09T11:00:00Z,26.5255,-82.0032,2.22,19.7,1111122 
SCCF RECON,ioos:station:SCCF:13:1,2014-02-09T12:00:00Z,26.5255,-82.0032,2.34,19.36,1111122 
SCCF RECON,ioos:station:SCCF:13:1,2014-02-09T13:00:00Z,26.5255,-82.0032,2.42,21.46,1111122 
SCCF RECON,ioos:station:SCCF:13:1,2014-02-09T14:00:00Z,26.5255,-82.0032,2.469,23.15,1111122 
SCCF RECON,ioos:station:SCCF:13:1,2014-02-09T15:00:00Z,26.5255,-82.0032,2.519,25.31,1111122 
SCCF RECON,ioos:station:SCCF:13:1,2014-02-09T16:00:00Z,26.5255,-82.0032,2.533,27.91,1111122 
SCCF RECON,ioos:station:SCCF:13:1,2014-02-09T17:00:00Z,26.5255,-82.0032,2.535,29.39,1111122 
SCCF RECON,ioos:station:SCCF:13:1,2014-02-09T18:00:00Z,26.5255,-82.0032,2.514,29.57,1111122 
SCCF RECON,ioos:station:SCCF:13:1,2014-02-09T19:00:00Z,26.5255,-82.0032,2.48,29.73,1111122 
SCCF RECON,ioos:station:SCCF:13:1,2014-02-09T20:00:00Z,26.5255,-82.0032,2.457,29.32,1111122 
SCCF RECON,ioos:station:SCCF:13:1,2014-02-09T21:00:00Z,26.5255,-82.0032,2.447,28.52,1111122 
SCCF RECON,ioos:station:SCCF:13:1,2014-02-09T22:00:00Z,26.5255,-82.0032,2.478,27.17,1111122 
SCCF RECON,ioos:station:SCCF:13:1,2014-02-09T23:00:00Z,26.5255,-82.0032,2.538,28.39,1111122 
SCCF RECON,ioos:station:SCCF:13:1,2014-02-10T00:00:00Z,26.5255,-82.0032,2.56,28.1,1111122 
SCCF RECON,ioos:station:SCCF:13:1,2014-02-10T01:00:00Z,26.5255,-82.0032,2.6,27.12,1111122 
SCCF RECON,ioos:station:SCCF:13:1,2014-02-10T02:00:00Z,26.5255,-82.0032,2.63,27.56,1111122 
SCCF RECON,ioos:station:SCCF:13:1,2014-02-10T03:00:00Z,26.5255,-82.0032,2.65,29.22,1111122 
SCCF RECON,ioos:station:SCCF:13:1,2014-02-10T04:00:00Z,26.5255,-82.0032,2.64,29.61,1111122 
SCCF RECON,ioos:station:SCCF:13:1,2014-02-10T05:00:00Z,26.5255,-82.0032,2.57,30.05,1111122 
SCCF RECON,ioos:station:SCCF:13:1,2014-02-10T06:00:00Z,26.5255,-82.0032,2.45,27.15,1111122 
SCCF RECON,ioos:station:SCCF:13:1,2014-02-10T07:00:00Z,26.5255,-82.0032,2.36,23.7,1111122 
SCCF RECON,ioos:station:SCCF:13:1,2014-02-10T08:00:00Z,26.5255,-82.0032,2.27,22.92,1111122 
SCCF RECON,ioos:station:SCCF:13:1,2014-02-10T09:00:00Z,26.5255,-82.0032,2.2,21.79,1111122 
SCCF RECON,ioos:station:SCCF:13:1,2014-02-10T10:00:00Z,26.5255,-82.0032,2.14,20.92,1111122 
SCCF RECON,ioos:station:SCCF:13:1,2014-02-10T11:00:00Z,26.5255,-82.0032,2.14,20.41,1111122 
SCCF RECON,ioos:station:SCCF:13:1,2014-02-10T12:00:00Z,26.5255,-82.0032,2.24,19.81,1111122 
SCCF RECON,ioos:station:SCCF:13:1,2014-02-10T13:00:00Z,26.5255,-82.0032,2.334,19.37,1111122 
SCCF RECON,ioos:station:SCCF:13:1,2014-02-10T14:00:00Z,26.5255,-82.0032,2.39,19.78,1111122 
SCCF RECON,ioos:station:SCCF:13:1,2014-02-10T15:00:00Z,26.5255,-82.0032,2.451,21.78,1111122 
SCCF RECON,ioos:station:SCCF:13:1,2014-02-10T16:00:00Z,26.5255,-82.0032,2.492,24.15,1111122 
SCCF RECON,ioos:station:SCCF:13:1,2014-02-10T17:00:00Z,26.5255,-82.0032,2.524,27.14,1111122 
SCCF RECON,ioos:station:SCCF:13:1,2014-02-10T18:00:00Z,26.5255,-82.0032,2.532,29.01,1111122 
SCCF RECON,ioos:station:SCCF:13:1,2014-02-10T19:00:00Z,26.5255,-82.0032,2.51,29.33,1111122 
SCCF RECON,ioos:station:SCCF:13:1,2014-02-10T20:00:00Z,26.5255,-82.0032,2.478,29.11,1111122 
SCCF RECON,ioos:station:SCCF:13:1,2014-02-10T21:00:00Z,26.5255,-82.0032,2.453,29.36,1111122 
SCCF RECON,ioos:station:SCCF:13:1,2014-02-10T22:00:00Z,26.5255,-82.0032,2.46,29.23,1111122 
SCCF RECON,ioos:station:SCCF:13:1,2014-02-10T23:00:00Z,26.5255,-82.0032,2.52,28.72,1111122 
SCCF RECON,ioos:station:SCCF:13:1,2014-02-11T00:00:00Z,26.5255,-82.0032,2.59,29.22,1111122 
SCCF RECON,ioos:station:SCCF:13:1,2014-02-11T01:00:00Z,26.5255,-82.0032,2.65,27.27,1111122 
SCCF RECON,ioos:station:SCCF:13:1,2014-02-11T02:00:00Z,26.5255,-82.0032,2.69,27.99,1111122 
SCCF RECON,ioos:station:SCCF:13:1,2014-02-11T03:00:00Z,26.5255,-82.0032,2.708,29.73,1111122 
SCCF RECON,ioos:station:SCCF:13:1,2014-02-11T04:00:00Z,26.5255,-82.0032,2.71,30.28,1111122 
SCCF RECON,ioos:station:SCCF:13:1,2014-02-11T05:00:00Z,26.5255,-82.0032,2.67,30.37,1111122 
SCCF RECON,ioos:station:SCCF:13:1,2014-02-11T06:00:00Z,26.5255,-82.0032,2.59,29.68,1111122 
SCCF RECON,ioos:station:SCCF:13:1,2014-02-11T07:00:00Z,26.5255,-82.0032,2.498,28.26,1111122 
SCCF RECON,ioos:station:SCCF:13:1,2014-02-11T08:00:00Z,26.5255,-82.0032,2.393,25.16,1111122 
SCCF RECON,ioos:station:SCCF:13:1,2014-02-11T09:00:00Z,26.5255,-82.0032,2.307,23.87,1111122 
SCCF RECON,ioos:station:SCCF:13:1,2014-02-11T10:00:00Z,26.5255,-82.0032,2.22,21.94,1111122 
SCCF RECON,ioos:station:SCCF:13:1,2014-02-11T11:00:00Z,26.5255,-82.0032,2.17,21.4,1111122 
SCCF RECON,ioos:station:SCCF:13:1,2014-02-11T12:00:00Z,26.5255,-82.0032,2.19,20.36,1111122 
SCCF RECON,ioos:station:SCCF:13:1,2014-02-11T13:00:00Z,26.5255,-82.0032,2.31,19.61,1111122 
SCCF RECON,ioos:station:SCCF:13:1,2014-02-11T14:00:00Z,26.5255,-82.0032,2.4,19.16,1111122 
SCCF RECON,ioos:station:SCCF:13:1,2014-02-11T15:00:00Z,26.5255,-82.0032,2.47,21.37,1111122 
SCCF RECON,ioos:station:SCCF:13:1,2014-02-11T16:00:00Z,26.5255,-82.0032,2.524,24.06,1111122 
SCCF RECON,ioos:station:SCCF:13:1,2014-02-11T17:00:00Z,26.5255,-82.0032,2.56,26.52,1111122 
SCCF RECON,ioos:station:SCCF:13:1,2014-02-11T18:00:00Z,26.5255,-82.0032,2.57,28.67,1111122 